Location: Amberg
(48.0613°N, 10.6820°E)
Time: 00:47:40
(UTC+00:00)

Cosmos 407 Rocket - Pass Details

Date: 18 November 2025
Orbit: 740 x 780 km, 74.0° (Epoch: 05 December)

Event Time Altitude Azimuth Distance (km) Brightness Sun altitude
Rises 16:23:02 0° 187° (S) 3,206 7.1 -8.0°
Reaches altitude 10° 16:25:27 10° 182° (S) 2,279 6.3 -8.4°
Maximum altitude 16:30:28 54° 106° (ESE) 914 3.6 -9.2°
Drops below altitude 10° 16:35:27 10° 31° (NNE) 2,272 5.5 -9.9°
Enters shadow 16:36:59 - 28° (NNE) 2,858 6.0 -10.2°
